AVA8562 SKPS-SKBO

Flight info

Callsign AVA8562
Flight time 0h 57m
Altitude 27000
Route TITGU2A TITGU DCT ESARO DCT GIR GIR5E
Aircraft A320/M-SDE3FGHIRWY/LB1

Departure

Time 2026-04-26 16:16
Airport Antonio Nariño Airport (SKPS)

Arrival

Time 2026-04-26 17:13
Airport El Dorado International Airport (SKBO)
Time Latitude Longitude Altitude Speed Heading
2026-04-26 16:07 1.39574 -77.28991 5908 ft 0 kts 105°
2026-04-26 16:07 1.39580 -77.29007 5932 ft 4 kts 129°
2026-04-26 16:08 1.39601 -77.29021 5904 ft 4 kts 173°
2026-04-26 16:08 1.39619 -77.29020 5907 ft 0 kts 195°
2026-04-26 16:10 1.39618 -77.29020 5907 ft 1 kts 195°
2026-04-26 16:11 1.39611 -77.29022 5907 ft 0 kts 195°
2026-04-26 16:11 1.39597 -77.29027 5908 ft 5 kts 199°
2026-04-26 16:11 1.39566 -77.29038 5909 ft 6 kts 198°
2026-04-26 16:11 1.39529 -77.29049 5910 ft 4 kts 198°
2026-04-26 16:12 1.39512 -77.29083 5912 ft 9 kts 283°
2026-04-26 16:12 1.39513 -77.29133 5913 ft 5 kts 204°
2026-04-26 16:12 1.39389 -77.29170 5919 ft 17 kts 196°
2026-04-26 16:13 1.39251 -77.29211 5927 ft 24 kts 193°
2026-04-26 16:13 1.39099 -77.29250 5935 ft 21 kts 194°
2026-04-26 16:13 1.38967 -77.29284 5939 ft 18 kts 194°
2026-04-26 16:13 1.38864 -77.29310 5946 ft 13 kts 194°
2026-04-26 16:14 1.38799 -77.29326 5952 ft 7 kts 193°
2026-04-26 16:14 1.38773 -77.29332 5946 ft 1 kts 193°
2026-04-26 16:14 1.38718 -77.29343 5951 ft 12 kts 185°
2026-04-26 16:15 1.38662 -77.29350 5962 ft 5 kts 224°
2026-04-26 16:15 1.38676 -77.29360 5963 ft 4 kts
2026-04-26 16:15 1.38699 -77.29354 5949 ft 0 kts 14°
2026-04-26 16:16 1.39275 -77.29204 5926 ft 111 kts 15°
2026-04-26 16:16 1.40204 -77.28959 5975 ft 157 kts 13°
2026-04-26 16:16 1.41271 -77.28672 6517 ft 161 kts 14°
2026-04-26 16:16 1.42361 -77.28379 7214 ft 162 kts 14°
2026-04-26 16:17 1.43447 -77.28089 7788 ft 161 kts 14°
2026-04-26 16:17 1.44533 -77.27802 8241 ft 161 kts 15°
2026-04-26 16:17 1.45636 -77.27590 8776 ft 162 kts
2026-04-26 16:17 1.46779 -77.27606 9190 ft 171 kts 353°
2026-04-26 16:18 1.48019 -77.27871 9375 ft 193 kts 346°
2026-04-26 16:18 1.50949 -77.28581 9687 ft 240 kts 347°
2026-04-26 16:19 1.54487 -77.29432 10195 ft 288 kts 347°
2026-04-26 16:19 1.56514 -77.29918 10524 ft 312 kts 347°
2026-04-26 16:19 1.60277 -77.30817 10993 ft 352 kts 347°
2026-04-26 16:20 1.63526 -77.31599 11597 ft 369 kts 346°
2026-04-26 16:20 1.68579 -77.32818 13013 ft 378 kts 346°
2026-04-26 16:20 1.71162 -77.33363 13753 ft 381 kts 351°
2026-04-26 16:21 1.73815 -77.33586 14394 ft 385 kts 359°
2026-04-26 16:21 1.76500 -77.33411 15022 ft 389 kts
2026-04-26 16:21 1.79151 -77.32823 15630 ft 392 kts 17°
2026-04-26 16:21 1.81704 -77.31842 16232 ft 396 kts 25°
2026-04-26 16:22 1.84111 -77.30484 16825 ft 400 kts 34°
2026-04-26 16:22 1.86347 -77.28812 17409 ft 403 kts 37°
2026-04-26 16:22 1.88584 -77.27096 17954 ft 407 kts 37°
2026-04-26 16:22 1.90818 -77.25333 18472 ft 411 kts 41°
2026-04-26 16:23 1.92785 -77.23246 18944 ft 415 kts 52°
2026-04-26 16:23 1.94459 -77.20894 19487 ft 416 kts 55°
2026-04-26 16:23 1.96111 -77.18516 19994 ft 418 kts 55°
2026-04-26 16:23 1.97773 -77.16121 20506 ft 420 kts 55°
2026-04-26 16:24 1.99442 -77.13718 20980 ft 422 kts 55°
2026-04-26 16:24 2.01123 -77.11301 21465 ft 425 kts 55°
2026-04-26 16:24 2.02788 -77.08902 21928 ft 427 kts 55°
2026-04-26 16:24 2.04489 -77.06455 22398 ft 430 kts 55°
2026-04-26 16:25 2.06202 -77.03994 22854 ft 433 kts 55°
2026-04-26 16:25 2.07927 -77.01515 23304 ft 435 kts 55°
2026-04-26 16:25 2.09659 -76.99022 23706 ft 438 kts 55°
2026-04-26 16:25 2.11401 -76.96515 24067 ft 440 kts 56°
2026-04-26 16:26 2.13149 -76.93999 24431 ft 442 kts 56°
2026-04-26 16:26 2.14336 -76.92290 24693 ft 443 kts 56°
2026-04-26 16:26 2.16673 -76.88925 25169 ft 446 kts 56°
2026-04-26 16:26 2.18449 -76.86374 25521 ft 448 kts 56°
2026-04-26 16:27 2.20231 -76.83818 25898 ft 449 kts 56°
2026-04-26 16:27 2.22017 -76.81250 26287 ft 451 kts 56°
2026-04-26 16:27 2.23810 -76.78673 26659 ft 453 kts 56°
2026-04-26 16:27 2.25612 -76.76078 26990 ft 456 kts 56°
2026-04-26 16:28 2.27421 -76.73467 27130 ft 458 kts 56°
2026-04-26 16:28 2.29244 -76.70838 27171 ft 461 kts 56°
2026-04-26 16:28 2.31074 -76.68201 27184 ft 462 kts 56°
2026-04-26 16:28 2.32909 -76.65559 27198 ft 462 kts 56°
2026-04-26 16:29 2.34744 -76.62917 27213 ft 463 kts 56°
2026-04-26 16:29 2.36668 -76.60341 27221 ft 463 kts 50°
2026-04-26 16:29 2.38930 -76.58040 27221 ft 465 kts 45°
2026-04-26 16:29 2.41274 -76.55819 27220 ft 465 kts 45°
2026-04-26 16:30 2.43623 -76.53595 27219 ft 465 kts 45°
2026-04-26 16:30 2.45964 -76.51372 27216 ft 465 kts 45°
2026-04-26 16:30 2.48305 -76.49145 27203 ft 464 kts 45°
2026-04-26 16:30 2.50646 -76.46916 27193 ft 464 kts 45°
2026-04-26 16:31 2.52985 -76.44690 27178 ft 464 kts 45°
2026-04-26 16:31 2.55322 -76.42469 27162 ft 464 kts 45°
2026-04-26 16:31 2.57661 -76.40247 27146 ft 463 kts 45°
2026-04-26 16:31 2.59996 -76.38029 27129 ft 463 kts 45°
2026-04-26 16:32 2.62330 -76.35807 27126 ft 463 kts 45°
2026-04-26 16:32 2.63879 -76.34335 27118 ft 464 kts 45°
2026-04-26 16:32 2.66976 -76.31391 27104 ft 464 kts 45°
2026-04-26 16:32 2.69312 -76.29167 27091 ft 464 kts 45°
2026-04-26 16:33 2.71648 -76.26942 27088 ft 464 kts 45°
2026-04-26 16:33 2.73989 -76.24714 27089 ft 464 kts 45°
2026-04-26 16:33 2.76327 -76.22489 27089 ft 464 kts 45°
2026-04-26 16:33 2.78668 -76.20261 27098 ft 464 kts 45°
2026-04-26 16:34 2.81010 -76.18034 27102 ft 464 kts 45°
2026-04-26 16:34 2.83350 -76.15811 27098 ft 464 kts 45°
2026-04-26 16:34 2.85694 -76.13588 27098 ft 465 kts 45°
2026-04-26 16:34 2.88039 -76.11361 27097 ft 465 kts 45°
2026-04-26 16:35 2.90383 -76.09131 27097 ft 465 kts 45°
2026-04-26 16:35 2.92726 -76.06902 27104 ft 465 kts 45°
2026-04-26 16:35 2.95071 -76.04673 27104 ft 465 kts 45°
2026-04-26 16:35 2.97416 -76.02448 27104 ft 465 kts 45°
2026-04-26 16:36 2.99766 -76.00220 27105 ft 465 kts 45°
2026-04-26 16:36 3.02116 -75.97990 27107 ft 466 kts 45°
2026-04-26 16:36 3.04464 -75.95763 27106 ft 466 kts 45°
2026-04-26 16:36 3.06813 -75.93532 27105 ft 465 kts 45°
2026-04-26 16:37 3.09158 -75.91301 27096 ft 466 kts 45°
2026-04-26 16:37 3.11504 -75.89067 27094 ft 466 kts 45°
2026-04-26 16:37 3.13852 -75.86833 27095 ft 466 kts 45°
2026-04-26 16:37 3.15412 -75.85351 27096 ft 466 kts 45°
2026-04-26 16:38 3.18553 -75.82363 27092 ft 466 kts 45°
2026-04-26 16:38 3.20903 -75.80127 27091 ft 466 kts 45°
2026-04-26 16:38 3.23251 -75.77898 27058 ft 466 kts 44°
2026-04-26 16:38 3.25603 -75.75668 27047 ft 466 kts 45°
2026-04-26 16:39 3.27958 -75.73435 27047 ft 466 kts 45°
2026-04-26 16:39 3.30312 -75.71200 27047 ft 467 kts 45°
2026-04-26 16:39 3.32667 -75.68961 27048 ft 467 kts 45°
2026-04-26 16:39 3.35019 -75.66720 27049 ft 467 kts 45°
2026-04-26 16:40 3.37375 -75.64475 27050 ft 468 kts 45°
2026-04-26 16:40 3.39732 -75.62232 27004 ft 468 kts 45°
2026-04-26 16:40 3.42093 -75.59988 27010 ft 468 kts 45°
2026-04-26 16:40 3.44450 -75.57747 27009 ft 468 kts 45°
2026-04-26 16:41 3.46810 -75.55506 27011 ft 468 kts 45°
2026-04-26 16:41 3.49171 -75.53266 27012 ft 468 kts 45°
2026-04-26 16:41 3.51533 -75.51022 27012 ft 468 kts 45°
2026-04-26 16:41 3.53891 -75.48777 26971 ft 468 kts 45°
2026-04-26 16:42 3.56248 -75.46533 26972 ft 468 kts 45°
2026-04-26 16:42 3.58608 -75.44285 26973 ft 468 kts 45°
2026-04-26 16:42 3.60169 -75.42798 26973 ft 468 kts 45°
2026-04-26 16:42 3.62528 -75.40554 26975 ft 468 kts 44°
2026-04-26 16:43 3.64886 -75.38310 26974 ft 468 kts 45°
2026-04-26 16:43 3.67244 -75.36066 26974 ft 467 kts 45°
2026-04-26 16:43 3.69600 -75.33824 26956 ft 467 kts 45°
2026-04-26 16:43 3.71956 -75.31582 26955 ft 468 kts 45°
2026-04-26 16:44 3.74317 -75.29335 26955 ft 468 kts 45°
2026-04-26 16:44 3.76678 -75.27088 26954 ft 468 kts 45°
2026-04-26 16:44 3.79036 -75.24842 26953 ft 468 kts 45°
2026-04-26 16:44 3.81396 -75.22596 26953 ft 468 kts 45°
2026-04-26 16:45 3.83757 -75.20348 26943 ft 468 kts 45°
2026-04-26 16:45 3.86117 -75.18102 26943 ft 468 kts 45°
2026-04-26 16:45 3.88479 -75.15856 26943 ft 468 kts 45°
2026-04-26 16:45 3.90842 -75.13608 26943 ft 468 kts 45°
2026-04-26 16:46 3.93202 -75.11360 26944 ft 468 kts 45°
2026-04-26 16:46 3.95562 -75.09109 26944 ft 468 kts 45°
2026-04-26 16:46 3.97922 -75.06861 26946 ft 468 kts 45°
2026-04-26 16:46 4.00286 -75.04612 26942 ft 468 kts 44°
2026-04-26 16:47 4.02648 -75.02365 26943 ft 468 kts 45°
2026-04-26 16:47 4.05008 -75.00117 26946 ft 468 kts 45°
2026-04-26 16:47 4.07363 -74.97869 26950 ft 468 kts 45°
2026-04-26 16:47 4.09720 -74.95617 26951 ft 468 kts 45°
2026-04-26 16:48 4.12076 -74.93369 26948 ft 468 kts 45°
2026-04-26 16:48 4.14435 -74.91120 26948 ft 468 kts 44°
2026-04-26 16:48 4.16941 -74.89043 26945 ft 469 kts 36°
2026-04-26 16:48 4.19762 -74.87407 26968 ft 469 kts 26°
2026-04-26 16:49 4.22775 -74.86277 26965 ft 469 kts 16°
2026-04-26 16:49 4.25979 -74.85658 26966 ft 469 kts
2026-04-26 16:49 4.29219 -74.85248 26966 ft 469 kts
2026-04-26 16:49 4.32453 -74.84834 26964 ft 468 kts
2026-04-26 16:50 4.35682 -74.84414 26960 ft 468 kts
2026-04-26 16:50 4.38892 -74.83992 26956 ft 459 kts
2026-04-26 16:50 4.41998 -74.83581 26861 ft 441 kts
2026-04-26 16:50 4.44989 -74.83184 26614 ft 428 kts
2026-04-26 16:51 4.47918 -74.82794 26156 ft 421 kts
2026-04-26 16:51 4.50809 -74.82411 25648 ft 417 kts
2026-04-26 16:51 4.53669 -74.82034 25136 ft 412 kts
2026-04-26 16:51 4.56537 -74.81656 24635 ft 408 kts
2026-04-26 16:52 4.59341 -74.81287 24146 ft 405 kts
2026-04-26 16:52 4.61184 -74.81044 23825 ft 402 kts
2026-04-26 16:52 4.64875 -74.80555 23108 ft 397 kts
2026-04-26 16:52 4.67601 -74.80194 22553 ft 394 kts
2026-04-26 16:53 4.70310 -74.79837 22022 ft 391 kts
2026-04-26 16:53 4.72956 -74.79487 21641 ft 384 kts
2026-04-26 16:53 4.75560 -74.79148 21517 ft 371 kts
2026-04-26 16:53 4.78100 -74.79138 21271 ft 362 kts 353°
2026-04-26 16:54 4.80584 -74.79479 20854 ft 359 kts 352°
2026-04-26 16:54 4.83050 -74.79829 20429 ft 357 kts 352°
2026-04-26 16:54 4.85496 -74.80179 20033 ft 354 kts 352°
2026-04-26 16:54 4.87928 -74.80528 19627 ft 352 kts 352°
2026-04-26 16:55 4.90342 -74.80873 19242 ft 349 kts 352°
2026-04-26 16:55 4.92739 -74.81208 18866 ft 347 kts 353°
2026-04-26 16:55 4.95138 -74.81210 18496 ft 345 kts
2026-04-26 16:55 4.97464 -74.80656 18098 ft 344 kts 17°
2026-04-26 16:56 5.01995 -74.79214 17283 ft 339 kts 17°
2026-04-26 16:56 5.04235 -74.78508 16993 ft 335 kts 17°
2026-04-26 16:56 5.06449 -74.77814 16984 ft 332 kts 16°
2026-04-26 16:57 5.08658 -74.77123 16996 ft 332 kts 16°
2026-04-26 16:57 5.10812 -74.76291 16992 ft 333 kts 27°
2026-04-26 16:57 5.14424 -74.73403 16995 ft 334 kts 43°
2026-04-26 16:58 5.16112 -74.71801 16985 ft 334 kts 43°
2026-04-26 16:58 5.17234 -74.70742 16987 ft 335 kts 43°
2026-04-26 16:58 5.21196 -74.66998 16979 ft 335 kts 43°
2026-04-26 16:59 5.22889 -74.65396 16975 ft 334 kts 43°
2026-04-26 16:59 5.25632 -74.61665 16963 ft 335 kts 67°
2026-04-26 17:00 5.27265 -74.57314 16960 ft 336 kts 69°
2026-04-26 17:00 5.28909 -74.52931 16951 ft 336 kts 69°
2026-04-26 17:00 5.29734 -74.50735 16952 ft 335 kts 69°
2026-04-26 17:01 5.30526 -74.48536 16961 ft 336 kts 74°
2026-04-26 17:01 5.30923 -74.46232 16965 ft 336 kts 87°
2026-04-26 17:01 5.30837 -74.43895 16964 ft 335 kts 95°
2026-04-26 17:01 5.30648 -74.41562 16964 ft 336 kts 95°
2026-04-26 17:02 5.30458 -74.39225 16961 ft 336 kts 95°
2026-04-26 17:02 5.30223 -74.36898 16958 ft 335 kts 102°
2026-04-26 17:02 5.29382 -74.34735 16987 ft 335 kts 123°
2026-04-26 17:02 5.27812 -74.33031 17004 ft 333 kts 145°
2026-04-26 17:03 5.25740 -74.32032 17011 ft 331 kts 167°
2026-04-26 17:03 5.23461 -74.31848 16941 ft 330 kts 187°
2026-04-26 17:03 5.21235 -74.32381 16476 ft 330 kts 198°
2026-04-26 17:03 5.19039 -74.33058 16059 ft 330 kts 198°
2026-04-26 17:04 5.16853 -74.33743 15698 ft 328 kts 199°
2026-04-26 17:04 5.14675 -74.34422 15345 ft 327 kts 199°
2026-04-26 17:04 5.12510 -74.35091 15003 ft 325 kts 198°
2026-04-26 17:04 5.10350 -74.35755 14673 ft 323 kts 198°
2026-04-26 17:05 5.08200 -74.36411 14289 ft 323 kts 198°
2026-04-26 17:05 5.06060 -74.37062 14010 ft 319 kts 197°
2026-04-26 17:05 5.03947 -74.37704 13762 ft 316 kts 197°
2026-04-26 17:05 5.01847 -74.38346 13510 ft 314 kts 198°
2026-04-26 17:06 4.99758 -74.38986 13275 ft 313 kts 197°
2026-04-26 17:06 4.97679 -74.39623 13058 ft 312 kts 198°
2026-04-26 17:06 4.95607 -74.40254 12831 ft 309 kts 197°
2026-04-26 17:06 4.93574 -74.40820 12715 ft 299 kts 189°
2026-04-26 17:07 4.91536 -74.40812 12629 ft 290 kts 169°
2026-04-26 17:07 4.89698 -74.40128 12653 ft 277 kts 149°
2026-04-26 17:07 4.88204 -74.38985 12671 ft 264 kts 140°
2026-04-26 17:07 4.86834 -74.37721 12146 ft 274 kts 132°
2026-04-26 17:08 4.85643 -74.36243 11798 ft 266 kts 126°
2026-04-26 17:08 4.84582 -74.34807 11764 ft 246 kts 127°
2026-04-26 17:08 4.83598 -74.33494 11796 ft 228 kts 127°
2026-04-26 17:08 4.82643 -74.32233 11775 ft 226 kts 127°
2026-04-26 17:09 4.81712 -74.31003 11613 ft 215 kts 127°
2026-04-26 17:09 4.81123 -74.30224 11447 ft 208 kts 127°
2026-04-26 17:09 4.79983 -74.28719 11132 ft 197 kts 127°
2026-04-26 17:09 4.79170 -74.27645 10910 ft 190 kts 127°
2026-04-26 17:10 4.78386 -74.26609 10701 ft 183 kts 127°
2026-04-26 17:10 4.77619 -74.25596 10500 ft 182 kts 127°
2026-04-26 17:10 4.76868 -74.24603 10296 ft 175 kts 127°
2026-04-26 17:10 4.76142 -74.23645 10088 ft 170 kts 127°
2026-04-26 17:11 4.75436 -74.22712 9889 ft 167 kts 127°
2026-04-26 17:11 4.74740 -74.21793 9705 ft 165 kts 127°
2026-04-26 17:11 4.74055 -74.20887 9570 ft 161 kts 127°
2026-04-26 17:11 4.73393 -74.20013 9344 ft 158 kts 128°
2026-04-26 17:12 4.72051 -74.18242 8815 ft 159 kts 128°
2026-04-26 17:12 4.71388 -74.17357 8534 ft 158 kts 128°
2026-04-26 17:13 4.70188 -74.15771 8373 ft 108 kts 127°
2026-04-26 17:13 4.69836 -74.15306 8372 ft 60 kts 127°
2026-04-26 17:13 4.69706 -74.14902 8373 ft 19 kts 92°
2026-04-26 17:14 4.69781 -74.14798 8373 ft 20 kts 33°
2026-04-26 17:14 4.69795 -74.14641 8373 ft 13 kts 130°
2026-04-26 17:14 4.69751 -74.14587 8373 ft 8 kts 127°
2026-04-26 17:15 4.69704 -74.14513 8373 ft 4 kts 106°
2026-04-26 17:15 4.69715 -74.14496 8371 ft 2 kts 36°
2026-04-26 17:15 4.69725 -74.14489 8373 ft 3 kts 37°
2026-04-26 17:16 4.69738 -74.14478 8373 ft 2 kts 38°
2026-04-26 17:16 4.69742 -74.14476 8373 ft 0 kts 38°